Temp
14 16 17 16 15 15 14 15 16 17 16 14 16 17 18 18 17 17 15 15 14 14 14 14 13 13 13 13 15 16 17 17 16 16 15 15 15 16 14 15 15 14 18 19
15 16 13 14 14 14 14 14 15 15 15 14 16 16 17 17 14 14 14 14 13 13 13 13 12 12 12 12 12 13 15 16 16 16 16 16 15 15 15 14 14 14 13 17
15 13 13 13 13 14 13 12 13 12 14 16 15 18 16 15 14 14 13 12 12 12 11 11 11 10 10 11 11 11 13 15 15 16 16 16 15 14 13 13 13 13 14 14
14 12 12 13 12 12 13 11 11 12 13 15 15 15 17 15 15 14 12 11 11 10 9 9 8 6 7 9 10 10 11 13 15 15 15 16 15 14 14 13 13 12 13 16
13 12 12 12 11 11 12 11 12 12 13 14 15 13 16 14 12 12 12 11 10 9 8 6 5 3 3 7 7 9 10 12 13 14 14 14 15 14 13 12 12 12 12 13
11 10 11 11 10 10 10 11 13 13 13 13 12 11 15 13 12 12 11 10 8 4 3 2 2 2 1 4 6 7 8 10 10 12 13 13 14 13 13 12 13 12 13 13
10 10 10 10 11 11 12 12 14 14 13 14 11 11 14 13 12 11 9 5 3 1 0 -0 -1 -0 0 2 2 3 4 6 8 11 11 12 13 13 13 13 13 13 13 13
12 10 10 10 11 10 10 10 11 10 12 12 12 11 13 13 11 9 7 3 2 0 -0 -1 -1 -1 -1 1 -1 0 2 3 4 6 9 11 12 12 11 12 11 11 14 15
11 10 10 10 10 10 10 10 9 8 9 9 11 12 13 12 10 9 5 2 1 0 -0 -1 -2 -1 -1 -2 -0 -1 -1 1 2 2 4 6 9 10 11 11 12 12 13 14
9 9 9 9 9 9 9 9 8 8 6 7 10 10 11 10 8 8 3 1 1 0 -0 -1 -2 -2 -0 -1 -1 -0 -1 -1 1 1 2 3 4 7 8 10 13 13 12 14
10 9 8 9 9 9 8 8 8 8 8 8 8 10 9 7 6 5 3 2 1 0 -1 -2 -2 -1 -1 -1 -2 -2 -0 -2 -1 1 -1 1 2 5 8 9 10 10 11 10
9 9 9 9 8 9 9 8 6 6 6 7 6 8 8 8 7 3 2 2 1 0 -1 -2 -3 -3 -2 -2 -2 -3 -1 -1 -3 -0 -2 2 -0 1 2 5 8 10 10 11
8 8 7 7 8 8 8 8 7 6 5 6 6 9 10 8 6 4 2 2 2 1 0 -1 -3 -4 -3 -2 -2 -2 -3 -1 -3 -3 -0 3 2 2 1 3 7 8 9 10
7 8 8 9 8 8 7 7 7 7 6 8 8 9 9 6 4 3 2 2 2 1 -0 -1 -3 -4 -5 -3 -3 -3 -2 -2 -4 -5 -4 -3 1 2 3 0 6 6 9 9
7 6 7 7 7 7 7 7 7 7 7 6 8 8 7 4 3 2 1 1 1 0 -1 -2 -3 -4 -5 -5 -3 -3 -2 -2 -2 -4 -5 -4 -1 4 4 4 6 7 8 8
6 5 4 5 6 6 6 7 7 7 7 7 7 7 5 5 4 1 1 -0 -1 -1 -2 -3 -3 -4 -5 -6 -6 -4 -4 -3 -3 -4 -3 -1 0 1 1 4 5 5 6 7
5 6 6 6 7 7 6 6 6 6 4 3 4 5 5 4 3 0 -1 -1 -2 -3 -3 -4 -4 -5 -6 -7 -8 -6 -5 -4 -4 -4 -4 -5 -3 0 2 3 3 4 5 5
5 5 5 6 6 5 5 6 5 4 5 4 3 4 3 3 2 -1 -2 -2 -3 -3 -4 -5 -5 -5 -6 -7 -8 -8 -8 -8 -8 -6 -6 -5 -3 -1 1 1 1 2 4 4
6 6 6 5 6 7 4 5 4 4 4 3 3 4 3 2 2 -2 -2 -3 -4 -4 -5 -5 -6 -6 -6 -7 -8 -8 -8 -8 -8 -9 -9 -8 -8 -5 -2 -0 -0 0 0 1
5 5 5 5 5 5 6 4 3 3 4 2 2 2 1 0 2 2 -3 -3 -4 -5 -5 -6 -6 -6 -7 -7 -8 -8 -8 -8 -9 -9 -9 -8 -8 -7 -6 -3 -2 -3 -0 1
3 3 4 5 4 5 5 3 3 3 2 1 -0 -0 -1 -1 -2 -3 -4 -4 -4 -5 -6 -6 -6 -7 -7 -8 -8 -8 -8 -9 -9 -9 -9 -8 -8 -8 -9 -8 -7 -6 -5 -5
3 4 4 4 3 4 3 3 3 2 1 -1 -1 -2 -3 -3 -3 -3 -3 -4 -5 -5 -6 -7 -7 -7 -7 -8 -8 -8 -8 -9 -10 -9 -8 -7 -8 -9 -9 -9 -8 -8 -8 -8
3 3 5 4 5 2 2 1 -1 -1 -1 -1 -1 -2 -3 -3 -3 -4 -4 -5 -6 -6 -7 -7 -8 -7 -8 -8 -9 -9 -9 -10 -10 -10 -9 -8 -8 -8 -9 -9 -9 -9 -9 -9
3 3 2 2 2 3 0 -1 -1 -1 -2 -2 -3 -3 -4 -4 -4 -5 -5 -5 -6 -7 -7 -8 -8 -8 -8 -9 -9 -9 -10 -10 -10 -10 -9 -10 -9 -8 -9 -10 -10 -10 -9 -9
4 3 3 2 2 1 -0 -0 -1 -2 -2 -3 -4 -4 -5 -6 -5 -6 -6 -6 -7 -8 -8 -9 -9 -9 -9 -10 -10 -10 -11 -11 -11 -11 -10 -10 -11 -11 -10 -10 -10 -11 -11 -10
4 4 3 4 1 1 0 -2 -2 -2 -3 -4 -4 -5 -6 -7 -7 -7 -7 -8 -9 -10 -10 -10 -10 -10 -11 -11 -10 -11 -11 -10 -10 -11 -10 -11 -11 -11 -11 -11 -10 -10 -10 -9
Height
1512 1505 1498 1504 1509 1509 1509 1506 1501 1496 1503 1506 1496 1489 1485 1482 1482 1485 1489 1491 1489 1487 1486 1484 1481 1477 1472 1469 1467 1465 1464 1465 1465 1466 1466 1466 1465 1467 1467 1469 1470 1473 1474 1478
1510 1503 1513 1513 1512 1511 1507 1505 1499 1499 1501 1507 1495 1488 1482 1484 1491 1492 1491 1491 1489 1486 1484 1482 1479 1475 1472 1467 1464 1461 1458 1458 1458 1458 1459 1458 1459 1459 1460 1461 1461 1464 1467 1469
1507 1512 1515 1512 1512 1509 1508 1510 1507 1508 1501 1495 1492 1473 1481 1489 1492 1493 1493 1492 1491 1488 1484 1479 1476 1474 1469 1464 1460 1457 1453 1451 1450 1451 1451 1451 1450 1449 1449 1448 1451 1453 1457 1462
1508 1514 1512 1509 1512 1514 1506 1514 1514 1505 1503 1491 1491 1484 1471 1484 1490 1495 1494 1491 1489 1488 1486 1482 1476 1468 1464 1461 1455 1450 1447 1443 1442 1443 1441 1442 1442 1439 1438 1441 1441 1445 1448 1452
1506 1511 1513 1512 1514 1513 1511 1516 1510 1504 1501 1492 1482 1493 1470 1489 1495 1496 1497 1496 1493 1489 1486 1485 1481 1475 1462 1452 1446 1444 1440 1437 1434 1432 1432 1431 1432 1432 1433 1432 1434 1437 1441 1443
1511 1515 1517 1516 1517 1517 1518 1513 1501 1497 1497 1487 1491 1498 1472 1488 1495 1497 1498 1498 1497 1495 1491 1487 1481 1472 1462 1453 1443 1434 1432 1428 1425 1422 1422 1421 1422 1424 1425 1427 1427 1429 1434 1436
1510 1511 1516 1516 1512 1515 1512 1505 1487 1483 1482 1478 1495 1496 1480 1488 1496 1501 1502 1508 1505 1500 1495 1490 1483 1472 1462 1452 1444 1434 1429 1422 1419 1414 1412 1412 1413 1417 1417 1419 1422 1426 1426 1425
1496 1504 1511 1515 1512 1512 1514 1512 1502 1503 1486 1486 1488 1487 1476 1490 1497 1502 1504 1509 1507 1502 1497 1491 1485 1476 1465 1455 1447 1437 1427 1421 1416 1411 1406 1405 1406 1410 1412 1414 1418 1426 1423 1424
1498 1502 1512 1514 1516 1518 1513 1510 1516 1516 1510 1506 1483 1483 1480 1489 1496 1500 1506 1507 1505 1501 1496 1490 1483 1475 1466 1456 1447 1440 1429 1421 1415 1411 1406 1403 1403 1404 1407 1412 1413 1417 1420 1418
1505 1503 1510 1514 1518 1519 1513 1515 1513 1514 1523 1506 1482 1486 1481 1492 1501 1499 1506 1506 1504 1500 1495 1486 1481 1474 1466 1458 1449 1439 1433 1422 1421 1409 1408 1403 1402 1404 1408 1408 1407 1411 1414 1413
1504 1504 1511 1514 1511 1507 1515 1511 1514 1514 1512 1501 1490 1479 1496 1504 1507 1507 1508 1506 1503 1498 1492 1486 1478 1472 1466 1459 1450 1440 1433 1426 1419 1420 1412 1408 1403 1401 1404 1406 1406 1410 1411 1415
1508 1505 1502 1505 1511 1512 1510 1513 1518 1512 1512 1508 1508 1492 1498 1503 1506 1510 1509 1506 1503 1499 1494 1487 1479 1471 1465 1458 1451 1442 1434 1431 1425 1420 1423 1410 1409 1409 1410 1411 1409 1410 1410 1411
1509 1504 1505 1508 1511 1513 1511 1513 1516 1519 1522 1511 1506 1487 1493 1498 1504 1509 1508 1505 1502 1497 1491 1486 1479 1472 1464 1457 1451 1443 1436 1430 1425 1422 1407 1407 1411 1411 1412 1412 1408 1408 1409 1408
1508 1500 1494 1486 1491 1499 1508 1509 1511 1511 1509 1494 1489 1487 1488 1501 1508 1509 1507 1505 1501 1496 1491 1485 1480 1474 1466 1458 1451 1444 1437 1429 1429 1422 1420 1415 1413 1407 1406 1409 1403 1406 1401 1404
1505 1502 1500 1499 1501 1504 1503 1504 1504 1505 1502 1502 1492 1492 1495 1506 1509 1509 1507 1504 1500 1495 1491 1486 1480 1474 1467 1458 1451 1445 1438 1430 1426 1424 1424 1415 1408 1402 1404 1404 1404 1400 1401 1403
1506 1505 1509 1505 1501 1501 1500 1500 1502 1503 1501 1498 1495 1493 1506 1503 1505 1508 1505 1503 1499 1495 1490 1485 1480 1475 1468 1460 1452 1446 1440 1434 1428 1420 1415 1412 1408 1409 1408 1404 1401 1400 1400 1400
1504 1501 1501 1493 1497 1496 1497 1497 1500 1502 1508 1512 1504 1502 1506 1505 1504 1507 1506 1503 1499 1495 1490 1485 1480 1474 1469 1463 1455 1447 1441 1435 1430 1425 1419 1415 1410 1406 1402 1400 1400 1399 1399 1398
1501 1501 1500 1493 1495 1494 1499 1502 1504 1505 1505 1508 1509 1508 1508 1506 1505 1506 1506 1502 1499 1495 1489 1485 1480 1475 1470 1464 1457 1449 1445 1438 1433 1427 1422 1417 1410 1406 1404 1401 1399 1398 1395 1394
1501 1499 1496 1495 1488 1487 1500 1502 1503 1503 1502 1509 1508 1506 1506 1505 1502 1505 1504 1502 1499 1494 1489 1485 1480 1475 1470 1464 1458 1452 1447 1443 1439 1433 1426 1418 1413 1407 1403 1399 1397 1395 1393 1390
1503 1503 1496 1494 1492 1487 1488 1503 1505 1506 1494 1508 1508 1507 1507 1505 1497 1500 1503 1501 1497 1494 1490 1485 1480 1476 1469 1463 1457 1454 1448 1442 1435 1429 1423 1419 1413 1409 1404 1400 1397 1395 1390 1388
1500 1501 1496 1489 1492 1489 1496 1502 1504 1499 1502 1506 1507 1507 1508 1507 1507 1504 1501 1499 1496 1492 1488 1483 1479 1474 1469 1463 1457 1452 1446 1438 1434 1428 1424 1419 1414 1409 1407 1401 1399 1394 1390 1388
1493 1490 1491 1494 1497 1491 1498 1501 1499 1501 1504 1506 1507 1506 1506 1506 1504 1501 1498 1496 1492 1489 1485 1480 1476 1473 1469 1464 1458 1453 1447 1440 1434 1429 1423 1417 1412 1409 1406 1402 1399 1395 1390 1388
1489 1489 1483 1488 1485 1496 1498 1499 1501 1502 1503 1504 1505 1505 1504 1503 1502 1500 1496 1492 1489 1485 1482 1478 1476 1472 1467 1462 1456 1453 1448 1441 1435 1432 1426 1419 1416 1410 1407 1400 1397 1392 1388 1386
1488 1490 1489 1492 1493 1493 1497 1498 1500 1501 1502 1502 1503 1503 1502 1501 1499 1497 1495 1492 1488 1484 1481 1477 1474 1471 1466 1461 1456 1451 1446 1441 1436 1430 1424 1420 1415 1407 1404 1400 1397 1393 1390 1385
1482 1486 1488 1491 1492 1494 1496 1497 1498 1499 1500 1501 1500 1500 1499 1498 1497 1495 1492 1490 1487 1485 1482 1479 1476 1471 1465 1459 1454 1450 1444 1438 1432 1428 1424 1420 1415 1409 1403 1401 1398 1394 1389 1385
1480 1480 1483 1479 1486 1489 1492 1495 1496 1498 1499 1499 1499 1499 1497 1496 1494 1491 1489 1486 1483 1480 1478 1474 1470 1465 1460 1455 1452 1447 1441 1436 1431 1427 1422 1417 1412 1407 1402 1398 1394 1394 1390 1385
Wind_Speed
2 8 4 5 3 5 7 10 12 10 12 15 14 19 20 20 8 7 13 13 15 19 21 23 25 25 25 23 22 21 20 19 20 20 24 25 30 35 35 37 38 37 47 42
5 4 3 1 2 4 6 9 11 10 8 14 15 19 5 8 10 11 15 20 23 26 27 29 30 30 30 29 28 27 25 25 23 22 24 27 27 28 30 32 37 39 38 44
5 7 2 1 1 6 1 7 7 9 15 19 10 13 8 7 9 12 17 21 24 28 32 35 35 35 35 35 33 32 30 29 28 28 26 28 26 27 30 37 39 41 47 39
2 4 2 3 2 6 11 3 7 12 13 10 9 5 11 3 5 16 23 27 27 29 31 32 36 40 40 39 37 34 32 32 30 27 31 31 33 33 35 33 40 40 42 45
5 3 4 3 2 3 5 10 11 14 15 15 6 5 8 6 10 15 19 25 27 29 30 29 33 33 37 37 30 31 30 29 29 30 31 33 37 36 32 35 36 39 40 40
6 4 2 2 3 2 7 9 15 10 8 8 6 3 2 7 13 15 20 27 30 27 28 29 33 34 37 28 22 18 19 21 27 26 27 30 34 35 29 27 32 35 32 35
7 5 5 1 5 5 6 8 4 5 6 4 5 8 5 11 13 19 20 23 22 21 26 26 32 37 36 34 30 24 20 15 11 19 25 26 30 32 29 28 28 24 27 27
7 6 9 2 1 4 2 4 4 5 6 7 10 6 5 8 14 19 24 18 22 20 23 27 32 36 37 35 36 29 22 19 20 13 5 15 22 25 25 22 19 17 17 18
5 4 5 4 2 3 4 3 4 4 6 6 3 5 10 5 13 19 19 17 18 20 23 24 29 35 39 38 34 35 25 17 15 19 16 9 14 20 25 24 24 17 15 15
3 3 5 6 5 3 5 4 4 4 3 5 3 10 3 11 14 18 14 12 15 18 23 25 28 34 38 37 34 33 29 20 18 13 11 12 10 11 12 17 20 19 17 16
6 4 6 4 8 4 5 5 3 3 4 4 6 3 6 7 11 13 13 15 16 19 22 25 30 33 34 35 36 32 30 24 20 15 16 11 13 11 10 10 11 13 13 14
4 3 6 5 1 4 4 4 3 3 5 5 6 13 7 6 10 11 11 11 15 17 19 22 25 30 32 34 35 34 29 28 22 12 14 15 15 12 8 5 7 8 8 9
9 5 5 7 6 5 8 9 7 5 2 11 9 8 11 13 15 15 11 13 16 19 22 23 24 31 32 32 32 33 30 27 28 21 17 6 13 12 10 7 5 2 3 4
8 5 7 3 5 4 7 9 9 8 7 11 11 17 14 12 11 14 10 13 16 19 23 24 24 26 30 30 31 30 30 26 27 24 20 14 11 11 11 10 8 5 3 5
4 5 6 5 6 8 10 12 13 14 14 13 16 17 10 8 9 12 11 15 17 21 23 23 24 24 25 28 29 29 27 25 26 25 19 18 17 15 14 12 10 8 6 6
4 4 2 4 5 4 6 8 8 9 10 15 14 16 5 13 14 11 12 15 20 21 23 23 22 22 23 24 26 27 26 26 26 26 25 22 18 14 14 12 12 11 10 10
7 5 5 3 6 4 6 9 6 4 4 6 10 9 14 14 17 6 8 15 18 20 21 21 21 21 22 22 23 24 24 24 25 23 22 22 20 18 16 14 13 13 13 13
7 6 3 3 6 5 6 6 1 4 7 4 7 8 10 13 16 2 8 16 16 19 20 19 20 19 20 20 20 20 20 20 22 22 22 21 20 19 17 15 16 15 15 15
3 4 3 3 3 2 6 4 2 2 1 2 5 8 11 14 11 6 13 14 13 17 17 18 19 18 18 19 20 18 17 16 17 18 18 21 21 21 21 20 19 19 18 17
4 4 4 3 2 3 8 4 1 3 4 3 4 7 10 14 6 5 16 15 14 14 15 17 18 17 17 19 20 18 18 19 20 21 22 21 22 22 21 21 21 21 20 19
6 3 7 4 3 1 5 3 4 5 4 2 3 3 7 7 9 16 15 13 14 15 16 16 16 17 18 18 19 19 20 22 23 22 22 21 21 22 20 20 19 19 20 20
8 7 4 3 4 4 8 4 4 4 2 2 2 3 6 8 11 13 14 14 15 15 16 17 17 17 16 17 18 18 20 22 22 22 23 23 22 21 20 19 18 18 17 17
4 1 2 3 2 8 3 2 4 2 3 1 1 3 6 8 9 11 14 15 16 16 18 17 16 17 17 18 18 19 20 21 21 20 20 20 20 20 19 20 19 19 20 19
5 5 1 2 3 5 6 5 5 4 3 2 0 2 5 7 9 11 12 13 15 16 17 17 18 18 18 18 18 18 19 21 21 21 22 20 21 22 20 19 18 17 20 20
2 10 5 3 5 3 5 7 6 5 4 2 0 2 4 6 9 11 13 13 13 13 14 15 15 16 17 18 18 18 19 21 20 20 19 18 18 19 19 16 17 17 16 19
9 6 4 1 10 3 6 9 6 7 4 1 1 3 4 6 8 11 12 13 13 14 15 15 15 16 17 18 18 19 20 22 22 20 19 19 19 19 19 20 20 16 18 17
Wind_Direction
198 254 264 28 340 327 299 289 292 317 336 326 316 309 312 313 308 8 3 353 353 349 341 338 337 335 332 325 315 309 296 280 277 255 246 239 237 239 236 232 230 228 240 240
216 259 42 48 10 298 289 295 306 302 338 318 314 305 329 34 57 50 20 1 355 349 345 342 338 335 331 325 318 309 302 295 284 267 253 245 243 243 241 237 229 227 231 236
282 85 81 184 348 295 271 312 310 300 313 287 337 288 181 97 68 27 11 3 354 349 343 338 335 332 328 322 315 307 300 291 283 274 263 250 248 245 241 236 232 229 233 228
168 149 179 189 230 308 289 26 290 302 314 307 347 287 300 73 18 7 359 355 351 348 344 341 337 333 334 327 311 302 294 288 278 272 260 246 243 242 242 239 242 235 229 232
103 157 171 241 19 350 346 319 290 294 287 295 255 257 108 105 9 355 358 351 346 344 344 344 344 340 335 327 331 309 295 284 274 266 255 251 242 241 238 241 244 239 235 227
102 102 8 83 153 266 302 276 274 272 266 252 93 324 346 27 355 4 359 1 359 7 0 350 346 345 345 339 343 336 322 292 280 263 252 246 235 233 224 227 242 237 231 219
161 161 147 191 215 198 294 290 283 243 218 291 143 301 276 23 16 17 19 16 16 13 8 359 358 358 352 352 353 13 10 347 318 263 248 237 233 228 224 228 222 213 198 190
203 191 189 125 337 334 347 318 297 282 281 308 302 252 76 19 34 7 33 15 16 10 7 7 4 2 4 0 357 353 16 22 18 22 173 194 216 210 191 193 192 201 203 220
194 160 121 107 152 278 129 247 24 280 253 272 242 239 250 85 16 2 30 21 13 8 4 4 0 0 360 5 5 356 2 9 31 24 35 76 161 171 177 197 199 201 200 203
158 172 192 140 175 127 275 108 204 170 261 271 273 279 270 4 351 2 10 17 2 360 356 0 355 355 357 360 5 6 350 12 0 49 41 57 70 126 155 176 184 198 209 213
171 252 145 191 211 191 167 183 202 301 261 284 294 306 56 25 1 1 4 1 357 353 352 349 355 356 356 354 360 11 4 358 10 356 31 46 53 75 128 160 176 193 203 207
174 208 187 186 141 254 239 182 184 246 171 242 287 290 121 38 24 9 350 1 347 345 346 346 349 351 356 355 356 359 12 359 8 23 357 36 40 42 45 93 140 171 194 213
172 190 175 164 160 175 207 196 190 186 249 254 275 283 191 26 7 355 352 351 345 342 345 347 348 347 354 354 355 356 2 0 2 3 16 37 8 30 24 31 79 107 210 236
183 205 263 265 80 130 186 203 225 242 266 277 261 285 337 359 352 343 351 342 341 343 343 344 346 345 347 352 353 357 353 1 360 358 358 7 11 14 14 1 21 5 337 293
214 228 224 254 255 249 248 247 238 240 249 266 290 305 345 350 337 345 335 341 340 341 340 344 345 345 346 349 353 356 357 357 351 359 357 359 7 15 359 356 348 352 322 295
181 188 195 248 196 203 239 231 229 243 261 266 280 295 355 331 340 351 337 341 339 338 339 342 343 343 346 348 347 352 354 354 352 351 356 357 4 2 354 352 345 337 321 305
183 187 205 202 200 266 230 198 209 266 281 279 276 337 335 332 334 356 344 341 338 336 338 340 341 342 343 343 343 346 350 353 353 353 352 351 355 358 357 350 339 329 318 318
171 193 212 208 223 221 104 116 310 247 264 251 281 311 323 331 339 88 357 346 340 339 338 341 341 340 341 339 341 344 345 349 346 348 349 352 358 359 355 349 342 332 324 317
219 205 201 222 230 97 171 192 266 307 165 224 289 322 338 342 329 155 5 350 338 337 336 335 338 339 338 341 343 345 344 345 342 341 342 348 349 352 352 349 344 336 330 325
191 255 247 192 242 241 100 128 181 180 216 136 318 327 341 339 330 4 341 338 333 335 335 334 337 340 344 345 345 345 347 347 349 349 350 348 350 350 348 347 342 337 333 324
187 211 221 194 255 226 142 104 162 244 73 343 347 348 350 330 318 311 322 327 326 330 333 337 340 343 343 344 347 348 348 349 347 350 350 350 351 350 345 345 340 339 336 328
185 180 183 183 219 228 171 169 240 69 111 101 22 353 326 318 317 319 323 327 330 331 337 340 341 338 339 343 348 349 348 344 343 345 348 352 351 351 345 345 341 340 339 333
202 255 175 236 56 126 137 124 133 137 154 142 316 331 320 317 319 323 324 327 333 333 335 336 333 333 337 342 348 345 341 344 345 341 345 351 349 352 347 349 346 348 348 343
179 162 164 244 177 198 174 167 175 182 177 196 258 326 320 320 321 323 324 324 328 332 332 333 333 331 334 337 341 340 340 342 342 342 347 348 348 355 354 354 348 349 347 348
151 170 179 247 205 171 189 187 186 181 174 181 331 334 329 328 324 325 326 324 323 324 327 327 324 326 330 336 338 338 340 341 344 344 344 343 346 349 354 352 345 346 349 348
196 182 188 258 160 132 150 183 198 175 173 177 317 316 335 339 331 330 326 325 325 326 327 328 329 333 336 338 337 340 343 344 346 344 345 347 349 351 352 351 349 347 341 340